Regional Weather Roundup
Issued by NWS

Home | Current Version | Previous Version | Graphics & Text | Print | Product List | Glossary On
Versions: 1 2 3 4 5 6 7 8 9 10 11 12 13 14 15 16 17 18 19 20 21 22 23 24 25 26 27 28 29 30 31 32 33 34 35 36 37 38 39 40 41 42 43 44 45 46 47 48 49 50
000
ASUS44 KFWD 231715
RWRTX
NORTH TEXAS HOURLY WEATHER ROUNDUP
NATIONAL WEATHER SERVICE FORT WORTH TX
1200 PM CDT MON OCT 23 2017

NOTE: "FAIR" INDICATES FEW OR NO CLOUDS BELOW 12,000 FEET WITH NO
SIGNIFICANT WEATHER AND/OR OBSTRUCTIONS TO VISIBILITY.

TXZ118-119-231800-
DALLAS/FORT WORTH METROPLEX

CITY           SKY/WX    TMP DP  RH WIND       PRES   REMARKS
DFW AIRPORT    MOSUNNY   74  39  28 SW7       30.12S
DALLAS LOVE    MOSUNNY   72  42  34 SW6       30.13S
FTW MEACHAM    SUNNY     75  42  30 S7        30.12S
DAL-EXECUTIVE  SUNNY     73  41  31 VRB5      30.13S
FTW-ALLIANCE   MOSUNNY   75  38  26 SW8       30.13R
FTW-SPINKS     SUNNY     75  41  29 S6        30.15S
ARLINGTON      SUNNY     72  38  29 S9        30.13S
GRAND PRAIRIE  SUNNY     73  36  25 SW12      30.15S
ADDISON        SUNNY     70  39  32 SW6       30.14S
MESQUITE       SUNNY     72  41  33 S9        30.15R
LANCASTER      SUNNY     70  42  35 SW9       30.15S
$$

TXZ091>094-102>105-117-120-121-131>134-231800-
NORTH CENTRAL TEXAS

CITY           SKY/WX    TMP DP  RH WIND       PRES   REMARKS
SHRMAN/DENISON SUNNY     71  40  32 SW14G21   30.13S
GAINESVILLE    SUNNY     72  38  29 SW10      30.13F
BOWIE          SUNNY     73  45  37 SW10G17   30.12F
BRIDGEPORT     SUNNY     73  42  33 W7        30.14S
DECATUR        SUNNY     71  40  33 SW9       30.12S
DENTON         SUNNY     74  39  28 SW10      30.12F
MCKINNEY       SUNNY     71  40  32 SW12      30.13S
BONHAM         SUNNY    N/A N/A N/A SW12      30.12F
GREENVILLE     SUNNY     73  41  31 SW8       30.14S
ROCKWALL       SUNNY     70  46  42 W8        30.15R
TERRELL        SUNNY     71  44  37 SW10      30.15R
WAXAHACHIE     SUNNY     72  44  36 SW7       30.15S
CLEBURNE       SUNNY     72  43  35 SW8       30.15S
GRANBURY       SUNNY     76  40  26 SW9       30.14S
$$

TXZ083>090-098>101-113>116-127>130-139>142-154-155-231800-
WESTERN NORTH TEXAS

CITY           SKY/WX    TMP DP  RH WIND       PRES   REMARKS
WICHITA FALLS  SUNNY     70  45  40 W10       30.11S HAZE
WF-KICKAPOO    SUNNY     70  45  40 W10       30.15R
VERNON         SUNNY     70  36  28 NW8       30.14R
ABILENE        SUNNY     70  47  43 SW14      30.13S
ABILENE-DYESS  SUNNY     74  49  40 S14       30.12R
GRAHAM           N/A     73  46  38 SW7       30.11S
BRECKENRIDGE   SUNNY     76  44  31 SW15G21   30.12S HAZE
CISCO          SUNNY     72  46  40 SW15G25   30.13S
EASTLAND       SUNNY     73  47  40 SW9G23    30.13S
RANGER         SUNNY     72  47  40 SW9G21    30.13S
MINERAL WELLS  SUNNY     73  41  31 SW10      30.12S
STEPHENVILLE   SUNNY     74  42  31 SW7       30.16S
COMANCHE       SUNNY     73  47  38 SW12      30.13F
BROWNWOOD      SUNNY     73  45  35 SW13      30.14
COLEMAN        SUNNY     74  45  34 SW16G22   30.14F
$$

TXZ143>147-156>162-174-175-231800-
CENTRAL TEXAS

CITY           SKY/WX    TMP DP  RH WIND       PRES   REMARKS
WACO           SUNNY     73  45  36 S13       30.14F
WACO-TSTC      SUNNY     75  41  29 S8        30.14F
WACO-MCGREGOR  SUNNY     74  50  42 S10       30.14
HILLSBORO      SUNNY     71  48  43 S8        30.14S
MEXIA          SUNNY     71  44  37 S10       30.14F
HEARNE         SUNNY     70  46  42 S5        30.17S
CAMERON        SUNNY     72  49  43 SW7G16    30.16S
TEMPLE         SUNNY     74  46  36 S10       30.15F
KILLEEN        SUNNY     72  44  35 S8        30.13F
KILLEEN-SKYLRK SUNNY     73  47  39 S10       30.15F
FORT HOOD      SUNNY     72  46  38 S7        30.11F
GATESVILLE     SUNNY     72  41  33 S8        30.15F
HAMILTON       SUNNY     75  44  32 SW12      30.14F
LAMPASAS       SUNNY     74  46  36 SW12      30.13F
$$

TXZ095>097-106>112-122>126-135>138-148>153-164>167-231800-
EAST TEXAS

CITY           SKY/WX    TMP DP  RH WIND       PRES   REMARKS
PARIS          SUNNY     70  45  40 SW12      30.12F
SULPHUR SPRNGS SUNNY     71  43  36 SW10      30.15S
MOUNT PLEASANT SUNNY     71  44  38 SW8       30.15S
GILMER         SUNNY     70  41  34 W6        30.13S
MINEOLA        SUNNY     70  45  40 SW6       30.14S
TYLER          SUNNY     69  44  40 W7        30.14S
LONGVIEW       SUNNY     73  42  32 W9        30.13S
MARSHALL       SUNNY     70  36  28 W7        30.15S
ATHENS         SUNNY     68  43  40 SW6       30.14S
PALESTINE      SUNNY     68  49  49 SW5       30.16F
JACKSONVILLE   SUNNY     69  42  36 NW5       30.16S
HENDERSON      SUNNY     71  42  34 W6        30.15F
CENTER         SUNNY     74  41  30 NW5       30.14S
NACOGDOCHES    SUNNY     71  45  39 CALM      30.15S
LUFKIN         SUNNY     70  43  37 CALM      30.14S
$$

SUPPLEMENTAL OBSERVATIONS (NWS FORT WORTH AREA)

CITY           SKY/WX    TMP DP  RH WIND       PRES   REMARKS
DENISON DAM      N/A     72  39  30 W14         N/A
CADDO GRASSLND   N/A     73  45  35 W7          N/A
PAT MAYSE LAKE   N/A     68  39  34 S7          N/A
GREENVILLE       N/A     72  41  33 SW10        N/A
CEDAR HILL       N/A     73  39  29 SW6         N/A
LBJ GRASSLAND    N/A     73  41  31 S6          N/A
POSSUM KINGDOM   N/A     75  45  33 SW9G21      N/A
GRANBURY         N/A     75  37  25 SW10        N/A
COMANCHE         N/A     75  45  33 SW13        N/A
MCGREGOR         N/A     73  43  33 S6          N/A
TEMPLE           N/A     73  43  33 S9          N/A
LAKE LIMESTONE   N/A     73  41  31 SW8G16      N/A
ATHENS           N/A     72  45  37 W5          N/A
$$

SUPPLEMENTAL OBSERVATIONS (NWS NORMAN AREA)

CITY           SKY/WX    TMP DP  RH WIND       PRES   REMARKS
GOODLETT         N/A     72  39  30 N14       30.14S
ODELL            N/A     69  44  41 NW10      30.15F
CROWELL          N/A     75  41  29 NW13      30.15R
KNOX CITY        N/A     73  39  29 W8        30.14S
SEYMOUR          N/A     71  44  38 W10       30.13S
MILLERS CREEK    N/A     70  45  40 SW12        N/A
$$

SUPPLEMENTAL OBSERVATIONS (NWS SAN ANGELO AREA)

CITY           SKY/WX    TMP DP  RH WIND       PRES   REMARKS
WEINERT          N/A     73  43  34 W12       30.13F
HASKELL          N/A     74  42  31 W9        30.13R
THROCKMORTON     N/A     73  49  42 SW13      30.14R
STAMFORD         N/A     74  46  36 SW12      30.14R
CLYDE            N/A     72  48  43 SW12      30.14F
HAMBY            N/A     72  46  40 SW17        N/A
IVIE RESERVOIR   N/A     79  46  31 SW14        N/A
COLORADO BEND    N/A     75  43  31 S9          N/A
$$

SUPPLEMENTAL OBSERVATIONS (NWS SHREVEPORT AREA)

CITY           SKY/WX    TMP DP  RH WIND       PRES   REMARKS
CLARKSVILLE      N/A     73  46  38 SW2         N/A
TEXARKANA        N/A     72  46  40 SW3         N/A
LINDEN           N/A     73  45  35 SW6         N/A
CADDO LAKE       N/A     75  43  31 NW3         N/A
GILMER           N/A     73  45  35 SW6         N/A
HENDERSON        N/A     73  39  29 SW6         N/A
LUFKIN           N/A     75  48  38 MISG        N/A
N SABINE NF      N/A     73  55  53 MISG        N/A
S SABINE NF      N/A     72  48  43 NE5         N/A
$$

SUPPLEMENTAL OBSERVATIONS ARE A COLLECTION OF AUTOMATED INSTRUMENTS
THAT ARE MAINTAINED BY A VARIETY OF FEDERAL AND STATE AGENCIES.
CERTAIN ELEMENTS...SUCH AS HUMIDITY VALUES AND SUSTAINED WIND
SPEEDS...MAY BE APPROXIMATED.





USA.gov is the U.S. government's official web portal to all federal, state and local government web resources and services.